Zurück zum Katalog

CZ-6A DEB

AktivSSO
NORAD 54486·DEBRIS·🇨🇳 China

Gestartet Nov 11, 2022 von Taiyuan Satellite Launch Center

Loading…

Nächste Überflüge (nächste 24 Stunden)

TLE

AktuellSource: Space-Track

Epoche: Sep 13, 2026, 13:45 UTC

1 54486U 22151HN  26256.57330161  .00004339  00000-0  15616-2 0  9995
2 54486  98.7998 277.8343 0075291  74.1215 286.8250 14.32668270198375

Verfolge CZ-6A DEB in Echtzeit mit AllMySat

Download on the App Store